Regional Weather Roundup
Issued by NWS

Home | Current Version | Previous Version | Graphics & Text | Print | Product List | Glossary On
Versions: 1 2 3 4 5 6 7 8 9 10 11 12 13 14 15 16 17 18 19 20 21 22 23 24 25 26 27 28 29 30 31 32 33 34 35 36 37 38 39 40 41 42 43 44 45 46 47 48 49 50
000
ASUS43 KLOT 191008
RWRIL

ILLINOIS REGIONAL WEATHER ROUNDUP
NATIONAL WEATHER SERVICE CHICAGO/ROMEOVILLE IL
400 AM CST SUN FEB 19 2017

NOTE: "FAIR" INDICATES FEW OR NO CLOUDS BELOW 12,000 FEET WITH NO
SIGNIFICANT WEATHER AND/OR OBSTRUCTIONS TO VISIBILITY.

* THESE STATIONS ARE NOT UNDER NWS QUALITY CONTROL. THEY ALSO MAY NOT
  REPORT WEATHER SUCH AS PRECIPITATION OR FOG.

ILZ001-002-007-009-015-016-024-191100-
NORTHWEST ILLINOIS

CITY           SKY/WX    TMP DP  RH WIND       PRES   REMARKS
MOLINE         CLOUDY    31  26  82 CALM      29.93R
STERLING*      PTCLDY    31  30  96 CALM      29.94S
SAVANNA*       CLEAR     29  29  99 CALM      29.93R
$$

ILZ003-004-008-010-011-017-018-191100-
NORTH CENTRAL ILLINOIS

CITY           SKY/WX    TMP DP  RH WIND       PRES   REMARKS
ROCKFORD       PTCLDY    31  29  92 CALM      29.94S
FREEPORT*      FOG       29  29  98 CALM      29.95R VSB 1/2
ROCHELLE*      CLEAR     30  29  96 CALM      29.94S
DE KALB*       CLEAR     37  35  90 CALM      29.94R
PERU*          PTCLDY    38  32  78 CALM      29.94S
$$

ILZ005-006-012>014-019>023-191100-
NORTHEAST ILLINOIS

CITY           SKY/WX    TMP DP  RH WIND       PRES   REMARKS
CHICAGO-OHARE  CLEAR     37  33  85 CALM      29.92R
CHICAGO-MIDWAY PTCLDY    43  35  73 SW7       29.93R
AURORA         PTCLDY    32  29  88 CALM      29.94R
LANSING*       CLEAR     36  34  94 CALM      29.94R
JOLIET*        PTCLDY    36  34  95 CALM      29.94R
WAUKEGAN       CLOUDY    40  35  83 NW5       29.91R
DUPAGE AIRPORT CLEAR     34  31  88 S3        29.92R FOG
KANKAKEE*      CLEAR     35  33  95 CALM      29.95R
WHEELING       CLEAR     33  29  85 CALM      29.93R
MORRIS*        CLEAR     35  32  89 CALM      29.93R
ROMEOVILLE*    PTCLDY    40  39  96 CALM      29.93R
NORTHERLY ISL    N/A     43  36  76 CALM        N/A
$$

LMZ740>746-191100-
SOUTHERN LAKE MICHIGAN

STATION/POSITION SKY/WX   TEMP    WIND        PRES    VSBY  WAVE
                          AIR SEA DIR/SP/G                  HT/PER
                          (F)     (DEG/KT/KT) (MB)    (MI)  (FT/S)
HARRISON CRIB              53     320/  7/  8   N/A
BURNHAM HARBOR             44      CALM  /  2   N/A
CALUMET HARBOR             44     210/  4/  5 1012.9R
BURNS HARBOR               42     200/  5/  6 1014.2R
MICHIGAN CITY              42     170/  3/  4   N/A
$$

ILZ025>027-034>036-040-047-049-050-058-095>099-191100-
WEST-CENTRAL ILLINOIS

CITY           SKY/WX    TMP DP  RH WIND       PRES   REMARKS
QUINCY         CLEAR     45  42  89 SW5       29.94R
GALESBURG*     CLOUDY    31  29  91 CALM        N/A
MACOMB*        CLOUDY    33  31  90 CALM      29.96R
JACKSONVILLE*  FOG       37  36  99 CALM      29.95R VSB<1/4
PITTSFIELD*    CLEAR     38  35  90 W3        29.95R
$$

ILZ028>032-037-038-041>044-048-051>054-059>061-191100-
CENTRAL ILLINOIS

CITY           SKY/WX    TMP DP  RH WIND       PRES   REMARKS
PONTIAC        CLEAR     38  38  98 CALM      29.95R
BLOOMINGTON    LGT RAIN  39  39 100 SW6       29.96R VSB 1/4 WCI  35
DECATUR        FOG       48  47  96 SW9       29.96R VSB 1/2
PEORIA         CLEAR     38  36  92 CALM      29.95R
LACON*         CLEAR     34  33  99 CALM      29.94R
LINCOLN*       DRZL/FOG  42  42 100 S5        29.96R VSB 1/4
SPRINGFIELD    FOG       42  41  96 S3        29.96R VSB 1/4
TAYLORVILLE    FOG       47  47 100 CALM      29.96R VSB 1/4
$$

ILZ033-039-045-046-055>057-062-063-191100-
EAST-CENTRAL ILLINOIS

CITY           SKY/WX    TMP DP  RH WIND       PRES   REMARKS
CHAMPAIGN      FOG       49  47  93 W9        29.96R VSB 1/4
RANTOUL*       FOG       49  48  99 W7        29.95R VSB 1/2
MATTOON        CLOUDY    50  50 100 SW5       29.96R FOG
PARIS*         CLOUDY    49  49  97 W6        29.98R
$$

ILZ079-100>102-191100-
SOUTHWEST ILLINOIS

CITY           SKY/WX    TMP DP  RH WIND       PRES   REMARKS
ALTON          FOG       43  43 100 SE3       29.96R VSB<1/4
BELLEVILLE     FOG       45  45 100 CALM      29.95S VSB 1/4
CAHOKIA*       FOG       40  38  93 CALM      29.95S VSB 1/4
SPARTA*        CLEAR     49  49  98 CALM      29.97S FOG
$$

ILZ064>066-069>071-074>076-080>082-084>086-088>090-092>094-191100-
SOUTH-CENTRAL ILLINOIS

CITY           SKY/WX    TMP DP  RH WIND       PRES   REMARKS
CARBONDALE     CLOUDY    52  52 100 SW6       29.97S FOG
CAIRO*         FOG       46  46 100 CALM      29.99S VSB 1/4
EFFINGHAM*     CLOUDY    51  51 100 SW7       29.98S FOG
MARION         CLOUDY    52  52 100 W3        29.98S FOG
MT. VERNON     CLOUDY    52  51  97 SW3       29.98R FOG
CENTRALIA*     CLOUDY    52  51  98 SW3       29.97S FOG
SALEM*         CLOUDY    53  50  91 SW6       29.97S FOG
METROPOLIS*    FOG       44  44  99 CALM      30.00S VSB<1/4
$$

ILZ067-068-072-073-078-083-087-091-191100-
SOUTHEAST ILLINOIS

CITY           SKY/WX    TMP DP  RH WIND       PRES   REMARKS
LAWRENCEVILLE  CLOUDY    49  48  97 CALM      29.99R FOG
FLORA*         CLOUDY    52  50  93 W5        29.98S FOG
FAIRFIELD*     CLOUDY    51  51 100 CALM      29.97S FOG
HARRISBURG*    FOG       51  51 100 W3        29.99R VSB 3/4
ROBINSON*      CLOUDY    49  48  95 W7        30.00R
CARMI*         FOG       50  50 100 W3        29.99R VSB 1
$$

ABBREVIATIONS USED IN REMARKS
   TC - TEMPERATURE IN CELSIUS
  WCI - WIND CHILL INDEX
   HX - HEAT INDEX
  VSB - VISIBILITY
$$





USA.gov is the U.S. government's official web portal to all federal, state and local government web resources and services.